Meath Environmental Platform

Observations

Time Sensor AQI SAQ Temp °C Hum % Pres Pa CO μg/m³ H₂S μg/m³ NO μg/m³ NO₂ μg/m³ O₃ μg/m³ SO₂ μg/m³ CO₂e PPM VOC PPM PM1 μg/m³ PM2.5 μg/m³ PM4 μg/m³ PM10 μg/m³ TPS µm
Wednesday 12 August 2026
04:37 Trim Market St 2 19.1 67 56,880 0.08 0 1.27 12.44 58.25 0 0.71 3.2 4.95
04:36 Trim Patrick St 2 18.5 68 38,460 0.02 1.49 1.34 15.2 40.9 0 6.29 10.34 11.37
04:35 Trim Patrick St 2 18.5 69 38,460 0.02 2.44 1.31 22.2 58.07 0 6.29 10.98 12.07
04:34 Trim Patrick St 2 18.5 69 38,460 0.02 2.36 1.33 14.8 45.74 0 5.43 9.55 10.51
04:33 Trim Patrick St 2 18.5 68 38,460 0.03 3.51 1.39 22.2 43.5 0 6.29 11.09 12.2
04:33 Trim Market St 2 19.1 66 56,884 0.07 0 1.29 12.02 68.34 0 2.85 3.22 4.94
04:32 Trim Patrick St 2 18.5 70 38,460 0.02 4.32 1.45 23.42 58.61 0 5.43 9.47 10.42
04:32 Trim Market St 2 19.1 67 56,896 0.06 0 1.29 27.05 59.62 0 2.14 4.68 6.88
04:31 Trim Patrick St 2 18.5 69 38,460 0.03 2.96 1.34 21.35 46.11 0 4.57 10.26 11.29
04:30 Trim Patrick St 2 18.5 69 38,460 0.03 2.2 1.32 16.83 53.62 0 3.71 8.09 8.9
04:29 Trim Patrick St 2 18.5 70 38,460 0.02 3.28 1.3 16.55 38.52 0 4.57 9.46 10.4
04:28 Trim Patrick St 2 18.5 71 38,460 0.04 5.11 1.3 37.8 56.5 0 4.57 8.71 9.58
04:27 Trim Patrick St 2 18.5 70 38,460 0.02 0 1.28 11.72 38.56 0 5.43 8.72 9.59
04:26 Trim Market St 2 19.1 67 56,944 0.06 0 1.3 13.08 62.6 0 2.14 3.71 6.24
04:26 Trim Patrick St 2 18.5 70 38,460 0.02 2.49 1.33 13.77 53.34 0 6.29 10.23 11.25
04:25 Trim Market St 2 19.1 66 56,957 0.07 0 1.3 12.91 64.9 0 1.43 3.22 4.94
04:25 Trim Patrick St 2 18.5 69 38,460 0.03 3.17 1.34 18.91 48.16 0 5.43 8.85 9.74
04:24 Trim Market St 2 19.1 67 56,957 0.07 0 1.29 12.2 61.44 0 2.14 4.2 6.88
04:24 Trim Patrick St 2 18.5 69 38,460 0.03 2.38 1.33 22.66 47.31 0 5.43 9.55 10.51
04:23 Trim Patrick St 2 18.5 70 38,460 0.02 2.28 1.3 12.44 40.98 0 5.43 8.76 9.64